AirNav   TITAN Aviation Fuels
 
 804 users online  

3M7 Lafayette Municipal Airport
Lafayette, Tennessee, USA

GOING TO LAFAYETTE?


FAA INFORMATION EFFECTIVE 16 JUNE 2022

Location

FAA Identifier: 3M7
Lat/Long: 36-31-12.1000N 086-03-29.0000W
36-31.201667N 086-03.483333W
36.5200278,-86.0580556
(estimated)
Elevation: 969 ft. / 295.4 m (surveyed)
Variation: 02W (1990)
From city: 2 miles W of LAFAYETTE, TN
Time zone: UTC -5 (UTC -6 during Standard Time)
Zip code: 37083

Airport Operations

Airport use: Open to the public
Control tower: no
ARTCC: MEMPHIS CENTER
FSS: NASHVILLE FLIGHT SERVICE STATION
NOTAMs facility: BNA (NOTAM-D service available)
Attendance: MON-FRI 0830-1500, ALL SAT 0830-1200
Wind indicator: lighted
Segmented circle: yes
Lights: SS-SR
Beacon: white-green (lighted land airport)
Operates sunset to sunrise.

Airport Communications

CTAF/UNICOM: 122.8
NASHVILLE APPROACH: 118.4
NASHVILLE DEPARTURE: 118.4
WX AWOS-3 at XNX (19 nm SW): 132.725 (615-230-8005)

Airport Services

Fuel available: 100LL JET-A+
100LL:FUEL AVBL 24 HRS CREDIT CARD SVC.
Parking: tiedowns
Airframe service: MINOR
Powerplant service: MINOR
Bottled oxygen: NONE
Bulk oxygen: NONE

Runway Information

Runway 1/19

Dimensions: 5200 x 75 ft. / 1585 x 23 m
Surface: asphalt, in excellent condition
Weight bearing capacity: 
PCN 11 /F/C/X/T
Single wheel: 21.0
Double wheel: 31.0
Runway edge lights: medium intensity
RUNWAY 1  RUNWAY 19
Latitude: 36-30.775500N36-31.627500N
Longitude: 086-03.541333W086-03.424500W
Elevation: 969.0 ft.945.4 ft.
Traffic pattern: leftleft
Runway heading: 008 magnetic, 006 true188 magnetic, 186 true
Displaced threshold: 200 ft.no
Declared distances: TORA:5200 TODA:5200 ASDA:5200 LDA:5000TORA:5200 TODA:5200 ASDA:5000 LDA:5000
Markings: basic, in good conditionbasic, in good condition
Visual slope indicator: 2-light PAPI on left (3.50 degrees glide path)2-light PAPI on left (3.00 degrees glide path)
Runway end identifier lights: yesyes
Touchdown point: yes, no lightsyes, no lights
Obstructions: 149 ft. tree, 3335 ft. from runway, 311 ft. left of centerline, 22:1 slope to clear
25:1 FROM DSPLCD THR.
32 ft. tree, 973 ft. from runway, 96 ft. left of centerline, 24:1 slope to clear

Airport Ownership and Management from official FAA records

Ownership: Publicly-owned
Owner: CITY OF LAFAYETTE
CITY HALL
LAFAYETTE, TN 37083
Phone 615-666-2194
Manager: RICHARD THOMAS
1000 AIRPORT RD
LAFAYETTE, TN 37083
Phone 615-666-6542
SKY CHASER AVIATION INC.

Airport Operational Statistics

Aircraft based on the field: 19
Single engine airplanes: 16
Multi engine airplanes: 2
Jet airplanes: 1
    
Aircraft operations: avg 28/day *
48% transient general aviation
48% local general aviation
2% military
1% air taxi
* for 12-month period ending 31 August 2018

Additional Remarks

FOR CD CTC NASHVILLE APCH AT 615-695-4522.

Instrument Procedures

NOTE: All procedures below are presented as PDF files. If you need a reader for these files, you should download the free Adobe Reader.

NOT FOR NAVIGATION. Please procure official charts for flight.
FAA instrument procedures published for use from 16 June 2022 at 0901Z to 14 July 2022 at 0900z.

 
IAPs - Instrument Approach Procedures
RNAV (GPS) RWY 01   download (247KB)
RNAV (GPS) RWY 19   download (221KB)
NOTE: Special Take-Off Minimums/Departure Procedures apply   download (126KB)

Other nearby airports with instrument procedures:

KXNX - Music City Executive Airport (19 nm SW)
1M5 - Portland Municipal Airport (21 nm W)
KTZV - Tompkinsville/Monroe County Airport (23 nm NE)
M54 - Lebanon Municipal Airport (23 nm SW)
KGLW - Glasgow Municipal Airport (31 nm N)
 
Loc | Ops | Rwys | IFR | FBO | Links
Com | Nav | Svcs | Stats | Notes
Area around 3M7 (Lafayette Municipal Airport)
 
Road maps at: MapQuest Bing Google
 
Aerial photo
WARNING: Photo may not be current or correct
Aerial photo of 3M7 (Lafayette Municipal Airport)
Photo by Clark Bourque.
Photo taken 28-May-2009

Do you have a better or more recent aerial photo of Lafayette Municipal Airport that you would like to share? If so, please send us your photo.

 
Sectional chart

 
Airport distance calculator
Flying to Lafayette Municipal Airport? Find the distance to fly.

From to 3M7

Sunrise and sunset
Times for 25-Jun-2022
 Local
(UTC-5)
 Zulu
(UTC)
Morning civil twilight04:5809:58
Sunrise05:2810:28
Sunset20:0501:05
Evening civil twilight20:3601:36

Current date and time
Zulu (UTC)  26-Jun-2022 03:50:56
Local (UTC-5)  25-Jun-2022 22:50:56
 
METAR
KXNX 
19nm SW 
260335Z AUTO 18005KT 8SM SCT060 30/22 A3007 RMK A01
K1M5 
21nm W 
260335Z AUTO 19007KT 10SM CLR 28/23 A3005 RMK A01
KGLW 
31nm N 
260335Z AUTO 20004KT 10SM CLR 26/22 A3006 RMK AO2 T02630218
KBWG 
32nm NW 
260253Z AUTO 16009KT 10SM CLR 30/22 A3003 RMK AO2 SLP161 T03000217 53015
K8A3 
37nm E 
260100Z AUTO 12026G38KT 100V160 SCT002 BKN011 OVC025 20/18 A3014 RMK A01
KMQY 
37nm SW 
260256Z AUTO 16007KT 10SM BKN080 29/23 A3008 RMK AO2 SLP185 T02940228 53025
KSRB 
38nm SE 
260335Z AUTO 00000KT 10SM CLR 26/22 A3009 RMK A01
TAF
NOTAMs
Click for the latest NOTAMs
NOTAMs are issued by the DoD/FAA and will open in a separate window not controlled by AirNav.

 

 
 

FBO, Fuel Providers, and Aircraft Ground Support

  
 Business Name 
 
 Contact 
 
 Services / Description 
 
Fuel Prices
 
Comments
  
Sky Chaser Aviation 615-666-6542
[email]
Aviation fuel, Aircraft parking (ramp or tiedown), Hangars, Hangar leasing / sales, Passenger terminal and lounge, Courtesy transportation, ...
 
Courtesy car   Wireless Internet Access (WiFi)  
 
More info about Sky Chaser Aviation
Titan
100LL Jet A
AS $6.79 $4.54 
 Updated 16-Jun-2022
 
   write
AS=Assisted/Self Service
Update Fuel Prices
 

Would you like to see your business listed on this page?

 If your business provides an interesting product or service to pilots, flight crews, aircraft, or users of the Lafayette Municipal Airport, you should consider listing it here.  To start the listing process, click on the button below
 
Add a business
 

Other Pages about Lafayette Municipal Airport

www.lafayettetn.com/airports.htm
 
Update a link
 
Copyright © AirNav, LLC. All rights reserved. Privacy Policy  Contact